Date String (YYYY-MM-DD hh:mm:ss) UTC,Instrument flags,Ambient pressure (hPa),Sample flow (lpm),Bypass flow (lpm),Sample temperature (°C),Ambient temperature (°C),ASC tube jacket temperature (°C),LED temperature (°C),Box temperature (°C),Sample RH (%),Span deviation,Mass concentration (μg/m³),Mass concentration (μg/m³),Mass concentration (μg/m³)
DateTimeUTC,F1_M11,P_M11,Q1_M11,Q2_M11,T1_M11,T2_M11,T3_M11,T4_M11,T5_M11,U1_M11,ZSPAN_M11,X0_M11,X2_M11,X1_M11
2022-11-21 17:00:00,,0830.3,5.01,0.00,23.9,23.0,00.0,32.6,25.8,09.0,0000.0,0006.18,0004.15,0003.94
2022-11-21 17:01:00,,0830.3,5.00,0.00,23.9,23.0,00.0,32.6,25.8,08.8,0000.0,0006.28,0004.22,0004.01
2022-11-21 17:02:00,,0830.3,4.98,0.00,23.9,23.0,00.0,32.6,25.9,08.9,0000.0,0006.28,0004.26,0004.06
2022-11-21 17:03:00,,0830.3,5.00,0.00,24.0,23.0,00.0,32.7,25.9,09.0,0000.0,0006.29,0004.29,0004.11
2022-11-21 17:04:00,,0830.3,5.01,0.00,24.0,23.1,00.0,32.7,25.9,09.1,0000.0,0006.33,0004.32,0004.14
2022-11-21 17:05:00,,0830.2,5.01,0.00,24.0,23.1,00.0,32.7,25.9,09.3,0000.0,0006.31,0004.34,0004.17
2022-11-21 17:06:00,,0830.3,5.01,0.00,24.0,23.1,00.0,32.7,25.9,09.3,0000.0,0006.31,0004.35,0004.19
2022-11-21 17:07:00,,0830.2,4.99,0.00,24.0,23.1,00.0,32.7,26.0,09.3,0000.0,0006.56,0004.38,0004.20
2022-11-21 17:08:00,,0830.2,5.00,0.00,24.1,23.2,00.0,32.8,26.0,09.0,0000.0,0006.45,0004.38,0004.20
2022-11-21 17:09:00,,0830.3,5.00,0.00,24.1,23.2,00.0,32.8,26.0,09.0,0000.0,0006.33,0004.38,0004.20
2022-11-21 17:10:00,,0830.3,4.99,0.00,24.1,23.2,00.0,32.8,26.0,08.7,0000.0,0006.36,0004.37,0004.19
2022-11-21 17:11:00,,0830.3,5.00,0.00,24.1,23.2,00.0,32.8,26.1,08.7,0000.0,0006.37,0004.36,0004.18
2022-11-21 17:12:00,,0830.3,5.01,0.00,24.2,23.2,00.0,32.8,26.1,09.0,0000.0,0006.56,0004.39,0004.18
2022-11-21 17:13:00,,0830.3,5.00,0.00,24.2,23.3,00.0,32.9,26.1,08.9,0000.0,0006.59,0004.40,0004.18
2022-11-21 17:14:00,,0830.3,5.00,0.00,24.2,23.3,00.0,32.9,26.1,09.1,0000.0,0006.60,0004.41,0004.19
2022-11-21 17:15:00,,0830.3,5.00,0.00,24.2,23.3,00.0,32.9,26.1,08.8,0000.0,0007.74,0004.43,0004.19
2022-11-21 17:16:00,,0830.3,4.99,0.00,24.2,23.3,00.0,33.0,26.2,08.6,0000.0,0007.74,0004.42,0004.18
2022-11-21 17:17:00,,0830.3,4.99,0.00,24.3,23.3,00.0,33.0,26.2,08.9,0000.0,0007.71,0004.42,0004.19
2022-11-21 17:18:00,,0830.3,4.99,0.00,24.3,23.3,00.0,33.0,26.2,08.7,0000.0,0007.84,0004.42,0004.20
2022-11-21 17:19:00,,0830.3,5.02,0.00,24.3,23.4,00.0,33.0,26.2,08.5,0000.0,0008.22,0004.45,0004.22
2022-11-21 17:20:00,,0830.3,4.99,0.00,24.3,23.4,00.0,33.0,26.2,08.6,0000.0,0008.24,0004.47,0004.24
2022-11-21 17:21:00,,0830.3,4.99,0.00,24.3,23.4,00.0,33.0,26.3,08.7,0000.0,0008.18,0004.48,0004.26
2022-11-21 17:22:00,,0830.3,5.01,0.00,24.4,23.4,00.0,33.1,26.3,08.7,0000.0,0008.17,0004.49,0004.28
2022-11-21 17:23:00,,0830.3,5.01,0.00,24.4,23.4,00.0,33.1,26.3,08.5,0000.0,0008.11,0004.48,0004.29
2022-11-21 17:24:00,,0830.2,5.01,0.00,24.4,23.4,00.0,33.1,26.3,08.5,0000.0,0008.18,0004.51,0004.30
2022-11-21 17:25:00,,0830.2,5.00,0.00,24.4,23.5,00.0,33.1,26.3,08.5,0000.0,0008.23,0004.51,0004.30
2022-11-21 17:26:00,,0830.2,4.99,0.00,24.4,23.5,00.0,33.2,26.3,08.4,0000.0,0007.53,0004.52,0004.31
2022-11-21 17:27:00,,0830.3,5.00,0.00,24.4,23.5,00.0,33.2,26.4,08.3,0000.0,0007.83,0004.54,0004.32
2022-11-21 17:28:00,,0830.2,5.01,0.00,24.5,23.5,00.0,33.2,26.4,09.1,0000.0,0008.29,0004.55,0004.32
2022-11-21 17:29:00,,0830.2,5.01,0.00,24.5,23.5,00.0,33.2,26.4,08.9,0000.0,0008.06,0004.55,0004.33
2022-11-21 17:30:00,,0830.2,4.99,0.00,24.5,23.5,00.0,33.2,26.4,08.4,0000.0,0007.74,0004.53,0004.32
2022-11-21 17:31:00,,0830.2,4.99,0.00,24.5,23.5,00.0,33.3,26.4,08.8,0000.0,0007.82,0004.54,0004.32
2022-11-21 17:32:00,,0830.2,5.00,0.00,24.5,23.6,00.0,33.3,26.5,08.9,0000.0,0007.83,0004.53,0004.32
2022-11-21 17:33:00,,0830.2,5.00,0.00,24.6,23.6,00.0,33.3,26.5,09.0,0000.0,0007.84,0004.54,0004.33
2022-11-21 17:34:00,,0830.2,5.00,0.00,24.6,23.6,00.0,33.3,26.5,09.1,0000.0,0007.94,0004.58,0004.38
2022-11-21 17:35:00,,0830.2,5.00,0.00,24.6,23.6,00.0,33.3,26.5,09.4,0000.0,0007.99,0004.65,0004.46
2022-11-21 17:36:00,,0830.3,5.01,0.00,24.6,23.6,00.0,33.4,26.5,09.8,0000.0,0008.05,0004.75,0004.54
2022-11-21 17:37:00,,0830.3,5.00,0.00,24.6,23.6,00.0,33.4,26.6,09.4,0000.0,0008.64,0004.85,0004.63
2022-11-21 17:38:00,,0830.3,5.00,0.00,24.6,23.7,00.0,33.4,26.6,08.8,0000.0,0008.75,0004.90,0004.70
2022-11-21 17:39:00,,0830.3,4.99,0.00,24.7,23.7,00.0,33.4,26.6,08.4,0000.0,0008.37,0004.92,0004.72
2022-11-21 17:40:00,,0830.2,4.99,0.00,24.7,23.7,00.0,33.4,26.6,08.2,0000.0,0008.34,0004.91,0004.72
2022-11-21 17:41:00,,0830.2,5.01,0.00,24.7,23.7,00.0,33.4,26.6,08.2,0000.0,0008.34,0004.92,0004.73
2022-11-21 17:42:00,,0830.2,5.00,0.00,24.7,23.7,00.0,33.5,26.6,08.4,0000.0,0008.27,0004.91,0004.73
2022-11-21 17:43:00,,0830.2,5.01,0.00,24.7,23.7,00.0,33.5,26.6,08.3,0000.0,0008.35,0004.95,0004.76
2022-11-21 17:44:00,,0830.2,5.00,0.00,24.7,23.7,00.0,33.5,26.6,08.2,0000.0,0008.36,0004.97,0004.77
2022-11-21 17:45:00,,0830.2,4.99,0.00,24.8,23.7,00.0,33.5,26.6,08.2,0000.0,0008.32,0004.93,0004.74
2022-11-21 17:46:00,,0830.1,5.00,0.00,24.8,23.7,00.0,33.5,26.6,08.1,0000.0,0008.24,0004.86,0004.67
2022-11-21 17:47:00,,0830.1,5.00,0.00,24.8,23.8,00.0,33.6,26.7,08.3,0000.0,0008.18,0004.77,0004.61
2022-11-21 17:48:00,,0830.1,5.00,0.00,24.8,23.8,00.0,33.6,26.7,07.9,0000.0,0007.84,0004.73,0004.57
2022-11-21 17:49:00,,0830.1,5.00,0.00,24.8,23.8,00.0,33.6,26.7,08.0,0000.0,0008.20,0004.73,0004.57
2022-11-21 17:50:00,,0830.1,5.01,0.00,24.8,23.8,00.0,33.6,26.7,08.4,0000.0,0008.17,0004.77,0004.60
2022-11-21 17:51:00,,0830.1,5.01,0.00,24.8,23.8,00.0,33.6,26.7,08.4,0000.0,0008.33,0004.86,0004.66
2022-11-21 17:52:00,,0830.1,5.00,0.00,24.9,23.8,00.0,33.6,26.8,08.2,0000.0,0008.37,0004.91,0004.70
2022-11-21 17:53:00,,0830.1,5.00,0.00,24.9,23.8,00.0,33.6,26.8,08.1,0000.0,0008.35,0004.93,0004.73
2022-11-21 17:54:00,,0830.1,4.99,0.00,24.9,23.8,00.0,33.6,26.8,08.3,0000.0,0008.30,0004.92,0004.72
2022-11-21 17:55:00,,0830.1,5.00,0.00,24.9,23.9,00.0,33.7,26.8,08.4,0000.0,0008.39,0004.93,0004.72
2022-11-21 17:56:00,,0830.1,5.01,0.00,24.9,23.9,00.0,33.7,26.8,08.4,0000.0,0008.35,0004.94,0004.73
2022-11-21 17:57:00,,0830.1,5.01,0.00,24.9,23.9,00.0,33.7,26.8,08.2,0000.0,0008.47,0004.99,0004.75
2022-11-21 17:58:00,,0830.1,4.98,0.00,24.9,23.9,00.0,33.7,26.8,08.2,0000.0,0008.44,0005.00,0004.76
2022-11-21 17:59:00,,0830.1,5.00,0.00,25.0,23.9,00.0,33.7,26.8,08.3,0000.0,0008.34,0004.99,0004.75
